Powrót do katalogu

STARLINK-5294

AktywnyŁącznośćVLEO
NORAD 54159·PAYLOAD·🇺🇸 United States

Wystrzelony Oct 28, 2022 z Vandenberg Space Force Base

Loading…

Następne Przeloty (najbliższe 24 godziny)

TLE

ŚwieżeSource: CelesTrak SupGP

Epoka: Sep 14, 2026, 22:19 UTC

1 54159C 22141C   26257.93034722  .00743300  00000+0  28399-1 0  2571
2 54159  53.1596 243.3692 0001391  93.9411 305.2918 15.25716563    15

Śledź STARLINK-5294 w czasie rzeczywistym z AllMySat

Download on the App Store